Dewpoint
35 26 26 24 23 26 29 31 31 31 33 33 33 33 34 36 38 35 34 32 29 27 28 27 26 26 27 27 29 31 31 31 29 29 29 29 29 29 29 29 29 30 31 33 33 31 31 29 29 21 18 20 18 16 17 21 22 21 26 27 27 30 27 25 25 27 27 28 24 24 24 22 20 20 20 21 22 23 24 24 24 24 23 23 26 29
32 24 24 25 24 26 27 30 32 32 32 32 32 33 32 37 31 33 32 35 38 27 26 27 25 25 26 27 28 28 28 28 29 27 28 28 29 29 29 29 30 32 34 32 32 30 30 29 19 18 18 20 18 19 18 17 19 19 19 20 21 24 26 29 26 24 24 24 23 23 23 20 17 17 17 18 20 21 24 23 23 23 23 23 24 27
28 26 25 25 28 29 29 30 31 31 30 30 32 32 31 30 33 34 32 33 30 28 27 29 24 24 25 26 28 27 27 29 30 31 29 28 28 29 29 29 30 30 30 30 31 31 31 27 22 17 16 19 18 17 18 18 18 19 19 19 23 25 25 23 24 22 22 23 22 22 22 21 17 15 16 18 20 21 19 20 22 23 23 23 23 23
23 24 27 27 28 28 28 29 29 30 32 32 31 31 31 33 31 28 33 33 32 30 26 25 24 25 26 26 27 27 27 28 29 29 30 32 29 28 28 29 30 29 29 29 29 30 31 31 30 26 21 22 25 25 23 20 23 22 21 19 19 20 21 22 23 25 22 23 22 23 22 21 19 16 18 18 18 18 18 18 19 20 21 22 21 21
22 29 32 28 28 28 27 28 28 29 28 33 32 32 32 32 32 31 30 29 29 29 27 26 26 25 26 24 24 26 28 27 28 29 29 30 31 32 31 30 29 28 28 29 28 28 30 30 30 30 29 25 21 24 23 20 18 17 18 19 19 19 19 21 24 21 21 22 21 21 21 21 20 18 17 17 17 16 18 17 17 18 20 21 20 20
26 27 31 28 28 28 28 28 30 29 26 27 32 32 33 32 30 29 29 28 27 27 29 31 27 23 24 24 23 25 26 25 28 27 27 28 28 28 28 28 29 28 30 30 28 29 30 29 30 30 30 27 26 26 24 18 19 17 18 18 19 19 19 19 21 22 21 21 22 22 21 21 20 18 17 16 15 15 15 16 17 17 19 20 19 19
28 30 29 25 27 28 28 28 30 30 26 25 28 34 35 31 29 29 30 29 26 25 29 35 29 21 24 23 23 24 24 24 26 26 26 26 26 27 27 27 27 28 29 29 28 28 27 28 29 29 30 31 30 30 24 21 19 16 16 17 18 19 19 21 19 22 22 20 21 22 21 20 19 18 17 16 16 16 15 17 16 17 18 19 19 18
26 28 29 30 30 28 28 28 30 32 29 26 34 37 34 30 29 31 31 30 32 33 32 31 29 21 20 23 24 24 23 23 24 25 25 23 23 22 25 25 26 26 27 27 28 26 26 27 29 28 29 31 31 29 28 22 21 23 22 18 17 18 19 18 19 19 22 19 19 20 23 23 19 16 14 15 15 15 16 15 16 16 16 17 18 17
28 24 27 27 29 28 28 29 29 33 30 31 33 36 33 30 31 31 33 32 31 32 29 30 31 24 21 22 24 24 21 21 22 24 24 24 22 21 21 21 22 23 23 23 23 24 28 27 26 28 29 28 27 25 22 20 16 16 16 17 17 17 17 17 18 18 18 21 19 20 20 20 20 17 15 14 15 14 15 14 15 15 15 16 17 17
31 28 27 27 29 28 28 28 31 33 31 34 34 36 36 33 33 30 33 32 31 30 26 30 31 23 21 21 21 23 21 20 21 23 25 24 23 22 21 22 21 22 23 23 21 20 19 19 17 15 15 17 17 20 20 18 17 16 15 16 16 17 17 17 16 17 17 18 20 20 20 20 18 15 14 13 13 13 14 14 14 14 15 15 16 16
26 33 35 27 27 28 29 29 31 34 34 36 34 34 33 33 31 28 29 27 29 26 28 30 30 24 19 20 20 20 21 21 22 24 25 26 25 23 22 23 23 24 25 24 25 24 24 23 21 20 20 22 20 19 19 19 17 16 15 15 16 16 17 17 17 16 16 17 18 19 20 19 17 15 13 12 12 13 12 12 13 13 14 15 15 15
25 31 29 29 33 31 30 30 32 35 37 36 32 32 33 31 32 30 26 25 24 24 28 29 27 25 21 23 22 24 23 22 22 22 23 24 25 25 26 27 27 27 27 28 28 28 28 28 27 27 26 25 24 23 18 18 17 16 15 15 15 16 17 17 17 17 17 17 18 18 20 19 17 14 13 12 11 12 11 11 12 12 13 12 15 14
24 26 30 29 33 31 29 29 32 32 36 34 30 31 27 25 27 22 24 23 23 23 27 30 29 27 21 22 26 24 23 22 22 22 22 23 24 26 27 28 28 29 29 28 28 29 28 27 24 22 22 20 18 19 18 18 17 16 14 15 15 16 17 17 18 17 17 16 16 17 18 19 18 15 13 12 12 12 11 11 11 11 11 12 13 13
23 26 27 25 30 32 31 28 30 30 32 33 31 29 26 20 22 20 22 24 23 25 28 28 29 25 24 25 27 26 24 22 22 22 22 23 24 27 27 27 28 28 28 29 28 28 27 25 23 21 19 18 18 18 19 18 17 16 16 15 16 16 17 18 18 18 17 16 16 16 17 18 18 16 13 13 12 12 11 12 11 11 11 12 12 13
18 18 23 26 24 28 31 31 31 33 33 34 30 30 26 25 21 18 21 19 21 24 27 28 25 19 23 24 26 25 24 23 23 23 23 25 26 27 27 27 28 28 28 28 26 25 23 22 22 21 20 19 19 19 20 19 18 17 16 16 15 16 17 17 17 18 18 17 16 16 16 17 18 16 13 14 14 12 11 11 11 11 11 11 12 13
23 22 25 27 28 31 31 31 33 33 32 29 29 29 25 20 25 19 21 22 22 24 24 23 23 22 24 27 27 26 25 24 25 25 26 25 27 27 27 26 27 27 26 26 24 22 22 22 22 22 22 21 20 20 21 20 20 18 17 15 15 16 16 17 18 18 18 18 17 16 15 15 16 16 14 14 14 13 12 11 11 11 10 11 13 12
25 23 29 29 30 28 32 33 33 32 25 30 31 25 25 29 27 25 26 27 27 25 20 24 23 24 26 27 27 25 24 24 24 25 25 25 26 26 26 26 26 25 24 22 21 20 20 21 21 22 22 22 22 21 20 20 19 18 16 15 15 15 16 17 18 17 18 18 17 16 15 15 14 14 13 12 12 12 12 12 11 11 11 11 13 14
23 24 27 29 30 28 30 33 31 31 28 31 26 28 29 31 27 22 19 20 19 20 19 22 20 21 21 18 26 25 24 24 24 24 25 25 26 26 25 26 25 23 22 21 21 20 20 20 20 22 23 22 21 21 20 20 20 19 18 15 15 15 15 17 17 17 17 18 17 16 15 14 14 14 14 13 12 12 11 10 10 11 11 10 13 13
27 23 25 24 27 30 29 32 32 34 33 30 31 33 27 22 20 21 23 18 18 14 13 19 21 20 22 23 22 23 23 24 24 24 25 25 25 25 25 25 24 23 22 21 20 21 20 19 20 21 21 22 22 22 22 22 21 20 18 17 15 15 16 17 19 17 17 18 18 17 16 14 15 14 14 14 13 12 10 10 10 11 10 10 12 12
26 23 24 25 28 27 28 32 27 28 33 30 33 30 29 27 25 18 13 17 20 15 14 14 17 17 22 24 23 25 25 25 24 24 24 24 25 25 24 24 24 22 21 21 21 21 20 19 19 20 21 21 22 22 22 22 21 20 20 17 16 16 16 16 16 18 16 17 17 16 15 14 14 15 14 14 12 11 10 10 10 10 9 10 12 11
22 27 22 24 25 26 26 28 28 25 29 28 28 25 24 21 26 26 19 15 15 12 9 11 11 18 21 24 25 25 25 25 24 24 24 24 25 25 24 24 23 22 21 21 20 20 19 18 18 19 20 22 22 23 22 21 20 20 19 17 15 14 14 15 16 17 17 16 16 15 14 13 13 13 13 12 13 11 11 10 11 10 10 10 10 10
18 25 24 26 26 18 25 26 28 27 28 25 26 26 26 23 21 21 16 19 13 14 12 12 9 19 21 21 22 26 26 25 25 24 24 24 25 25 24 24 22 21 20 20 20 20 19 18 18 19 21 22 21 21 21 21 20 19 19 18 17 15 16 15 17 18 17 17 16 15 15 14 13 14 13 12 12 12 12 10 9 10 9 8 10 10
23 22 24 21 23 24 26 26 27 28 27 26 26 25 24 19 20 15 16 17 11 13 15 11 8 16 19 20 20 23 26 26 25 25 24 24 25 25 24 23 22 20 19 19 19 19 18 17 17 18 19 19 20 20 20 20 19 18 18 18 17 16 15 15 16 18 17 16 15 15 16 15 14 13 13 11 12 11 12 11 9 11 9 9 10 10
29 11 15 14 17 21 21 23 22 20 25 24 23 24 24 22 22 19 18 21 16 11 10 6 3 13 19 21 19 20 25 26 25 25 24 24 24 24 24 23 20 19 18 17 18 19 18 17 17 17 18 19 19 19 20 20 19 19 18 18 16 15 15 15 16 17 17 17 16 15 15 14 13 12 12 11 12 11 12 11 9 10 9 9 9 8
15 17 19 10 10 10 13 19 20 20 20 15 18 22 22 23 22 21 15 9 15 11 12 10 -0 5 17 20 21 22 25 25 25 25 25 24 24 24 23 22 20 18 16 16 17 17 17 16 15 16 17 18 19 19 19 19 19 18 18 17 16 17 16 15 17 16 17 16 16 16 14 13 13 11 11 11 11 12 11 10 7 7 7 7 7 7
17 14 8 12 15 13 11 12 13 12 17 21 22 21 21 21 18 14 12 6 7 10 10 3 -0 9 17 19 20 23 24 24 24 24 24 24 24 23 22 22 19 16 15 15 16 16 15 15 14 15 16 18 18 19 19 19 18 17 17 16 17 16 16 16 15 16 16 16 16 16 15 14 13 11 11 12 12 11 10 8 6 6 6 8 7 6
11 11 9 8 12 10 11 10 13 19 20 16 19 20 20 21 20 16 14 7 7 10 9 10 11 16 17 17 19 22 24 24 23 24 23 23 23 22 22 21 19 15 14 14 16 15 15 14 13 13 15 17 18 19 19 19 18 17 16 17 17 16 16 16 15 15 15 16 15 16 14 14 12 13 11 11 11 11 10 8 6 6 6 7 6 6
10 13 11 8 10 13 15 12 13 14 19 20 19 19 19 19 18 11 11 8 14 16 5 11 13 12 15 17 18 21 23 23 23 23 23 22 22 22 21 21 22 13 13 14 15 14 14 13 13 13 14 16 18 19 19 19 18 17 16 15 16 16 16 16 14 15 15 15 15 15 15 14 14 11 10 11 11 11 10 9 6 6 6 6 5 5
8 8 12 8 6 11 11 10 5 15 16 18 17 15 14 17 18 12 14 12 17 10 13 15 16 14 15 18 19 21 23 23 23 23 23 22 22 21 21 20 17 12 12 12 13 14 13 13 13 12 14 16 17 18 18 18 18 18 17 16 15 15 14 16 14 14 14 15 15 15 15 14 13 11 10 9 10 10 10 8 5 5 4 3 3 3
16 9 12 9 3 3 2 6 3 6 9 15 14 10 11 17 17 18 18 19 17 15 14 17 18 16 16 17 19 20 22 23 22 22 21 21 21 21 20 19 16 12 11 11 12 13 13 13 13 12 13 15 16 17 17 18 18 17 16 15 15 14 13 14 13 13 14 14 14 15 14 13 11 10 9 10 9 9 8 5 4 3 2 2 2 2
16 8 20 8 1 -2 1 7 1 0 4 4 7 5 6 14 16 17 19 20 20 18 18 18 17 17 18 20 19 20 21 20 20 20 20 20 20 21 20 18 16 12 10 10 11 12 13 13 12 12 13 14 16 17 17 17 17 17 15 14 13 13 13 13 12 13 13 13 14 15 13 11 10 9 8 8 8 7 5 5 2 0 -0 -0 -0 1
12 8 3 1 0 -3 -3 1 -1 -2 -0 -0 -4 -8 1 15 16 17 18 20 18 17 17 17 16 18 20 19 20 20 19 20 20 20 19 20 20 20 19 18 16 12 9 9 10 11 12 12 12 12 12 13 15 16 17 17 16 17 15 14 13 12 13 13 12 13 12 13 14 15 13 10 10 7 6 6 5 5 3 2 -0 -1 -1 -2 -0 0
5 2 -6 -10 -4 -12 -4 -4 -3 -2 -0 -5 2 -7 -12 12 16 15 16 18 22 19 18 13 16 20 22 20 18 18 19 19 19 19 20 20 20 20 19 18 16 14 10 9 10 11 11 11 11 11 12 12 14 16 17 17 16 16 15 13 12 11 12 11 12 11 11 12 13 14 11 9 7 6 4 4 4 3 2 0 -1 -2 -2 -2 -1 0
4 -3 -6 -4 -17 -16 -9 -8 -5 -14 -18 -4 3 14 6 6 13 15 15 15 16 21 20 20 19 19 19 20 19 18 18 19 19 20 21 20 19 19 19 18 17 15 11 9 9 10 10 11 11 12 12 12 13 15 16 17 15 16 15 13 12 10 10 10 10 10 10 11 12 13 10 8 6 4 3 3 3 2 1 -0 -1 -1 -1 -1 0 0
3 -4 -7 -14 -14 -24 -10 -10 -16 -26 -7 -0 9 16 18 17 15 13 13 12 14 20 19 18 17 17 18 19 20 19 19 19 20 20 20 20 20 20 19 19 18 16 12 10 9 9 10 10 11 11 11 11 13 15 16 16 15 15 14 13 11 10 9 9 9 9 9 9 10 12 9 7 5 3 2 2 2 2 1 0 -0 -1 -1 1 1 -0
-4 1 3 -6 -12 -13 -12 -15 -27 -9 -1 1 3 7 15 15 15 4 1 4 11 16 20 19 18 17 18 19 19 17 18 15 17 19 20 20 20 20 20 19 18 17 13 11 9 9 10 10 10 10 11 13 13 15 15 15 14 14 13 12 11 9 9 9 8 8 8 8 9 11 8 5 4 3 2 2 2 2 1 0 -0 -1 0 2 1 0
6 1 -2 -8 -9 -14 -15 -16 -4 -0 3 -5 -4 1 15 9 10 -0 -6 -5 -0 10 18 20 20 18 17 18 13 13 14 14 15 17 19 20 20 21 20 20 19 18 15 13 10 10 10 10 10 10 12 12 13 14 14 14 14 13 12 11 10 10 9 8 8 7 7 7 8 8 6 4 3 2 2 2 2 2 1 1 0 0 2 1 0 -1
14 2 1 -4 -4 -5 -9 -13 -9 -8 -17 -1 3 5 13 13 12 5 -2 2 4 5 14 18 19 19 17 14 12 12 15 16 16 17 18 18 20 21 21 21 20 19 17 14 11 10 9 9 9 10 11 12 13 13 13 13 13 12 11 11 10 10 9 8 7 7 6 6 7 6 4 3 2 2 2 2 2 2 1 1 1 1 1 1 -0 -1
5 6 6 -1 5 -4 -11 -13 -16 -16 -4 1 -3 5 14 15 12 9 8 -2 3 5 10 15 16 18 17 15 11 13 16 14 12 13 17 17 19 20 20 20 20 20 18 15 11 9 9 9 9 11 12 12 12 13 13 13 13 11 10 11 10 9 9 8 8 7 6 6 6 5 3 2 2 2 2 2 2 2 1 1 1 1 2 1 1 -0
-3 -3 -6 -5 -5 -8 -12 -14 -11 -13 -10 -1 -1 8 13 16 9 -3 -14 -3 5 8 10 13 13 16 17 15 12 15 15 13 9 8 16 16 18 20 20 20 20 20 18 15 12 10 9 11 12 11 11 11 12 14 12 13 12 11 10 10 10 9 9 8 8 7 6 5 4 4 3 2 2 2 2 2 2 2 1 1 1 1 1 0 0 1
-7 -6 -4 -2 -7 2 2 -11 -13 -1 6 6 -0 8 16 14 1 -4 -9 5 8 11 12 13 12 16 16 13 13 14 16 11 11 14 15 15 16 18 20 20 20 20 18 15 13 16 10 10 10 10 10 11 12 13 12 12 12 11 10 10 10 9 9 9 8 7 6 4 4 3 2 2 2 3 3 3 2 1 1 1 1 -0 -1 -1 -2 -0
-7 -9 -2 -6 -6 -3 -4 -7 1 0 6 7 14 15 17 -0 -12 -4 6 13 10 13 15 14 14 16 15 16 14 15 16 15 17 11 11 13 15 17 19 20 20 19 18 16 15 13 9 10 10 10 11 11 12 12 12 12 11 11 10 10 9 9 10 9 8 6 5 4 3 2 2 2 3 3 3 2 2 1 0 -1 -1 -1 -2 -2 -3 -3
3 -3 -4 -5 -3 -7 -8 -8 -11 -8 2 11 14 11 11 0 10 14 12 6 14 16 16 16 15 16 15 14 16 16 12 12 11 10 11 13 15 16 19 20 19 18 16 12 13 13 10 10 10 10 10 11 12 12 12 12 11 10 10 9 9 9 9 8 7 5 4 3 3 2 2 2 3 3 2 -1 -1 -2 -3 -3 -5 -5 -5 -4 -5 -4
7 -6 -12 -7 3 0 -6 -7 -3 8 11 15 7 8 10 10 15 17 8 6 14 16 16 16 15 16 16 14 13 15 14 12 10 11 10 10 12 15 18 19 19 18 16 14 13 12 12 11 10 10 10 11 11 11 12 11 11 10 10 9 9 9 8 8 6 5 4 4 3 2 3 2 1 1 -1 -1 -3 -4 -5 -6 -6 -7 -8 -6 -6 -6
7 4 7 1 7 4 2 4 8 10 15 15 10 10 11 13 13 15 12 11 12 14 16 16 15 16 15 15 14 13 13 13 13 11 11 11 11 13 17 17 17 16 14 13 12 13 12 11 11 10 10 11 11 11 11 11 11 11 10 10 9 9 8 7 6 5 4 4 3 2 1 0 0 -1 -4 -4 -4 -7 -7 -8 -9 -9 -9 -8 -8 -7
6 6 4 1 9 8 9 10 10 10 10 15 16 14 11 12 13 14 13 11 13 15 17 16 16 16 15 15 14 13 13 13 12 12 11 11 10 11 14 16 15 15 13 12 12 13 12 11 11 11 10 10 11 11 12 11 11 11 10 10 9 9 8 7 5 4 4 3 2 1 -1 -2 -4 -5 -5 -6 -7 -9 -10 -10 -11 -11 -9 -9 -10 -11
4 6 3 1 5 -2 5 10 8 7 8 12 14 16 17 16 14 14 12 13 13 15 16 16 14 16 17 16 17 15 15 15 13 13 13 11 11 10 10 13 14 14 12 12 11 13 12 11 11 10 10 10 10 11 11 11 11 11 10 9 9 9 8 6 5 4 2 2 1 -2 -3 -2 -4 -5 -7 -8 -7 -8 -9 -8 -9 -10 -10 -11 -12 -13
9 7 4 7 2 3 7 9 9 6 8 8 14 13 13 17 18 17 16 14 14 12 15 17 15 15 16 15 15 15 14 14 13 13 12 11 11 11 10 11 12 13 13 12 11 13 12 12 11 10 10 10 10 10 11 11 11 11 10 9 9 8 6 5 4 4 2 1 -0 -2 -3 -3 -2 -3 -7 -8 -8 -9 -11 -12 -11 -11 -10 -11 -12 -14
8 9 6 7 8 10 9 8 8 9 13 13 11 12 16 17 18 18 18 17 16 15 14 15 16 16 16 16 15 15 14 14 13 13 12 12 11 11 10 10 10 11 12 12 12 13 12 11 12 11 11 10 10 10 11 10 11 10 9 8 7 6 5 4 1 2 -1 -1 -3 -2 -4 -5 -5 -6 -7 -8 -10 -10 -8 -13 -12 -13 -12 -10 -10 -10
7 7 8 5 3 8 6 7 8 3 8 10 13 13 13 13 13 13 14 15 16 15 15 15 15 16 16 16 16 15 15 14 14 13 13 12 11 11 11 10 10 10 11 12 12 13 13 13 12 11 11 10 10 10 10 10 10 9 8 7 6 5 5 3 1 -0 -0 -1 -2 -3 -5 -6 -8 -9 -9 -10 -11 -13 -12 -6 -2 -1 -6 -7 -1 2
8 8 7 8 11 8 10 10 8 10 8 8 9 12 13 12 12 11 11 13 13 15 15 15 15 15 15 15 16 16 15 15 15 14 14 13 13 12 12 11 11 10 10 11 11 11 12 12 12 12 11 10 10 10 10 9 9 7 6 6 5 6 5 3 1 0 -0 -3 -3 -4 -5 -8 -10 -11 -13 -13 -12 -15 -13 -12 -11 5 7 8 5 5